Location: Briis
(48.6240°N, 2.1211°E)
Time: 10:55:22
(UTC+00:00)

Cosmos 1898 Rocket - Pass Details

Date: 25 September 2020
Orbit: 753 x 784 km, 74.0° (Epoch: 30 October)

Event Time Altitude Azimuth Distance (km) Brightness Sun altitude
Rises 02:48:38 0° 338° (NNW) 3,243 6.9 -28.0°
Reaches altitude 10° 02:51:01 10° 340° (NNW) 2,318 6.1 -27.7°
Maximum altitude 02:56:17 72° 65° (ENE) 816 3.7 -26.9°
Drops below altitude 10° 03:01:33 10° 150° (SSE) 2,322 6.0 -26.2°
Sets 03:03:57 0° 153° (SSE) 3,250 6.7 -25.9°
